Terminal Aerodrome Forecast
Issued by NWS Chicago, IL

Home | Current Version | Previous Version | Graphics & Text | Print | Product List | Glossary On
Versions: 1 2 3 4 5 6 7 8 9 10 11 12 13 14 15 16 17 18 19 20 21 22 23 24 25
311
FTUS43 KLOT 270854 AAA
TAFRFD
TAF AMD
KRFD 270854Z 2709/2806 29005KT P6SM SKC
     FM271700 26009KT P6SM FEW050 SCT250
     FM280200 17007KT P6SM FEW250=

USA.gov is the U.S. government's official web portal to all federal, state and local government web resources and services.